EW1088 Weather Reports


time (UTC)temp
F
wind
direction
speed
knots
gust
knots
rain 1hr
in
rain 24hr
in
rain mn
in
humidity
%
barometer
mb
20260507101346 37 340 1.7 4.3 0.00 0.29 0.05 94 1016.6
20260507100850 37 314 1.7 4.3 0.00 0.29 0.05 94 1016.5
20260507100846 37 341 1.7 4.3 0.00 0.29 0.05 94 1016.5
20260507095851 38 322 1.7 3.5 0.01 0.29 0.05 94 1016.4
20260507095847 37 296 1.7 4.3 0.01 0.29 0.05 94 1016.5
20260507094846 38 320 0.9 3.5 0.01 0.29 0.05 94 1016.4
20260507094350 38 318 0.9 2.6 0.01 0.29 0.05 94 1016.4
20260507094346 38 342 0.9 3.5 0.01 0.29 0.05 94 1016.4
20260507093350 38 301 0.9 2.6 0.02 0.29 0.05 94 1016.4
20260507093346 38 301 0.9 2.6 0.02 0.29 0.05 94 1016.4
20260507092346 38 301 1.7 5.2 0.02 0.29 0.05 94 1016.3
20260507091851 38 295 0.9 3.5 0.02 0.29 0.05 94 1016.2
20260507091846 38 299 1.7 5.2 0.02 0.29 0.05 94 1016.3
20260507090849 38 301 1.7 2.6 0.03 0.29 0.05 94 1016.1
20260507090845 38 301 1.7 2.6 0.04 0.29 0.05 94 1016.0
20260507085844 38 283 1.7 3.5 0.05 0.28 0.04 94 1016.0
20260507085344 38 280 0.9 3.5 0.06 0.28 0.04 94 1015.9
20260507084845 39 154 0.0 0.0 0.07 0.28 0.04 94 1015.9
20260507084345 39 154 0.0 0.9 0.09 0.28 0.04 94 1015.9
20260507084341 39 154 0.0 0.9 0.10 0.28 0.04 94 1015.9
20260507083341 39 154 0.0 0.9 0.10 0.27 0.03 93 1015.8
20260507082843 39 154 0.0 1.7 0.10 0.27 0.03 93 1015.8
20260507082838 39 154 0.0 1.7 0.10 0.27 0.03 93 1015.8
20260507081834 39 154 0.0 1.7 0.10 0.27 0.03 93 1015.7
20260507081334 39 149 0.0 1.7 0.11 0.27 0.03 93 1015.6
20260507080834 39 149 0.9 3.5 0.10 0.26 0.02 93 1015.6
20260507080333 39 148 1.7 3.5 0.10 0.25 0.01 92 1015.6
20260507075836 39 168 1.7 3.5 0.08 0.23 0.23 92 1015.6
20260507075832 39 174 0.9 4.3 0.08 0.22 0.22 93 1015.6
20260507074829 39 191 0.9 4.3 0.08 0.21 0.21 92 1015.6
20260507074329 40 228 0.9 3.5 0.07 0.19 0.19 93 1015.6
20260507073831 40 228 1.7 3.5 0.07 0.18 0.18 93 1015.5
20260507073827 40 196 0.9 4.3 0.07 0.17 0.17 93 1015.5
20260507072827 40 156 0.9 4.3 0.08 0.17 0.17 93 1015.3
20260507072327 40 119 0.9 4.3 0.08 0.17 0.17 93 1015.2
20260507071827 40 106 1.7 2.6 0.09 0.17 0.17 93 1015.2
20260507071327 40 34 1.7 2.6 0.08 0.16 0.17 93 1015.2
20260507070832 40 299 0.9 2.6 0.08 0.15 0.15 93 1015.1
20260507070827 40 34 0.9 2.6 0.09 0.16 0.16 93 1015.1
20260507065831 40 299 1.7 3.5 0.08 0.15 0.15 94 1015.1
20260507065826 40 297 2.6 4.3 0.08 0.14 0.14 93 1015.0
20260507065430 40 299 2.6 5.2 0.07 0.13 0.13 93 1015.1
20260507064324 40 299 3.5 5.2 0.06 0.12 0.12 94 1015.1
20260507063818 40 286 3.5 6.1 0.06 0.11 0.11 94 1015.0
20260507063322 40 290 1.7 4.3 0.04 0.09 0.09 93 1014.9
20260507063318 40 282 2.6 6.1 0.05 0.10 0.10 94 1015.0
20260507062319 40 276 1.7 3.5 0.05 0.09 0.09 93 1014.8
20260507061818 41 297 1.7 3.5 0.04 0.08 0.08 93 1014.6
20260507061318 41 297 1.7 3.5 0.04 0.08 0.08 93 1014.5
20260507060818 41 293 1.7 3.5 0.03 0.07 0.07 92 1014.5
20260507060320 41 290 1.7 3.5 0.04 0.07 0.07 92 1014.4
20260507055819 41 288 1.7 3.5 0.04 0.07 0.07 92 1014.4
20260507055323 41 278 1.7 3.5 0.03 0.06 0.06 92 1014.3
20260507055319 41 296 1.7 3.5 0.03 0.06 0.06 92 1014.4
20260507054318 41 289 0.9 3.5 0.03 0.06 0.06 92 1014.3
20260507053822 42 269 0.9 2.6 0.02 0.05 0.05 92 1014.2
20260507053818 42 269 0.9 1.7 0.02 0.05 0.05 92 1014.2
20260507052818 42 269 0.0 2.6 0.02 0.05 0.05 91 1014.2
20260507052318 42 269 0.9 2.6 0.01 0.04 0.05 91 1014.1
20260507051819 42 269 0.9 2.6 0.01 0.04 0.04 91 1014.1
20260507051318 42 269 0.9 2.6 0.01 0.04 0.04 90 1014.0
20260507050819 42 269 0.9 2.6 0.01 0.04 0.04 89 1014.0
20260507050319 43 269 1.7 3.5 0.00 0.03 0.03 88 1013.9
20260507045818 43 269 1.7 3.5 0.00 0.03 0.03 88 1013.9
20260507045318 43 274 0.9 2.6 0.00 0.03 0.03 87 1013.9
20260507044818 43 275 0.9 2.6 0.00 0.03 0.03 87 1013.9
20260507044318 43 272 1.7 3.5 0.00 0.03 0.03 86 1013.8
20260507043819 43 272 1.7 3.5 0.00 0.03 0.03 86 1013.8
20260507043318 43 274 1.7 3.5 0.00 0.03 0.03 86 1013.7
20260507042822 43 280 1.7 4.3 0.00 0.03 0.03 85 1013.7
20260507042818 43 280 1.7 4.3 0.00 0.03 0.03 85 1013.7
20260507041821 44 297 0.9 3.5 0.00 0.03 0.03 85 1013.6
20260507041817 44 295 0.9 2.6 0.00 0.03 0.03 85 1013.6
20260507040821 44 295 1.7 3.5 0.00 0.03 0.03 84 1013.6
20260507040817 44 295 1.7 3.5 0.00 0.03 0.03 85 1013.6
20260507035816 44 294 2.6 3.5 0.00 0.03 0.03 84 1013.5
20260507035316 44 270 2.6 4.3 0.00 0.03 0.03 84 1013.5
20260507034814 44 304 2.6 4.3 0.00 0.03 0.03 84 1013.4
20260507034315 44 297 1.7 4.3 0.00 0.03 0.03 84 1013.4
20260507033814 44 297 1.7 4.3 0.00 0.03 0.03 84 1013.4
20260507033311 44 301 1.7 3.5 0.00 0.03 0.03 83 1013.4
20260507032815 44 293 1.7 3.5 0.00 0.03 0.03 83 1013.3
20260507032810 44 310 1.7 3.5 0.00 0.03 0.03 83 1013.3
20260507032416 44 293 1.7 3.5 0.00 0.03 0.03 83 1013.3
20260507031313 44 293 0.9 3.5 0.00 0.03 0.03 83 1013.2
20260507031309 45 299 0.9 2.6 0.00 0.03 0.03 84 1013.2
20260507030312 45 299 0.9 3.5 0.00 0.03 0.03 85 1013.2
20260507030308 45 299 0.9 3.5 0.00 0.03 0.03 85 1013.2
20260507025306 45 332 0.9 4.3 0.00 0.03 0.03 86 1013.2
20260507024804 45 331 1.7 4.3 0.00 0.03 0.03 85 1013.1
20260507024305 45 332 1.7 4.3 0.00 0.03 0.03 85 1013.1
20260507023805 45 331 1.7 4.3 0.00 0.03 0.03 84 1013.0
20260507023304 45 326 1.7 4.3 0.00 0.03 0.03 83 1013.1
20260507022804 46 351 0.9 4.3 0.00 0.03 0.03 83 1013.0
20260507022308 46 268 1.7 4.3 0.00 0.03 0.03 76 1012.9
20260507022306 46 321 1.7 4.3 0.00 0.03 0.03 80 1013.0
20260507021302 46 283 0.9 3.5 0.00 0.03 0.03 76 1012.9
20260507020800 46 264 1.7 3.5 0.00 0.03 0.03 74 1012.9
20260507020258 46 247 1.7 4.3 0.00 0.03 0.03 75 1012.9
20260507015759 46 242 0.9 4.3 0.00 0.03 0.03 75 1012.9
20260507015306 46 212 0.9 4.3 0.00 0.03 0.03 76 1012.8
20260507015258 46 253 0.9 3.5 0.00 0.03 0.03 76 1012.8
20260507014904 45 270 0.9 4.3 0.00 0.03 0.03 80 1012.8
20260507013758 45 217 0.9 4.3 0.01 0.03 0.03 81 1012.8
20260507013302 44 253 1.7 3.5 0.01 0.03 0.03 83 1012.7
20260507013258 45 252 0.9 4.3 0.01 0.03 0.03 81 1012.7
20260507012904 44 253 1.7 3.5 0.01 0.03 0.03 85 1012.7
20260507011759 44 253 0.9 2.6 0.01 0.03 0.03 86 1012.7
20260507011257 44 204 0.9 2.6 0.01 0.03 0.03 87 1012.7
20260507010758 44 204 0.9 2.6 0.01 0.03 0.03 86 1012.8
20260507010258 43 204 0.9 2.6 0.02 0.03 0.03 86 1012.7
20260507005756 43 179 0.9 2.6 0.02 0.03 0.03 86 1012.8
20260507005256 43 179 0.9 3.5 0.02 0.03 0.03 85 1012.7
20260507004757 44 356 0.0 1.7 0.03 0.03 0.03 87 1012.8
20260507004752 43 347 0.9 3.5 0.02 0.03 0.03 85 1012.8
20260507003751 44 356 0.9 2.6 0.02 0.02 0.02 88 1012.7
20260507003255 44 351 0.0 1.7 0.02 0.02 0.02 86 1012.6
20260507003251 44 356 0.9 2.6 0.02 0.02 0.02 87 1012.7
20260507002252 44 351 0.9 2.6 0.02 0.02 0.02 86 1012.7
20260507001752 44 351 0.9 2.6 0.02 0.02 0.02 86 1012.6
20260507001252 44 356 0.9 2.6 0.02 0.02 0.02 85 1012.6
20260507000752 44 299 0.9 2.6 0.02 0.02 0.02 86 1012.5
20260507000251 44 299 0.9 2.6 0.01 0.01 0.01 84 1012.5
20260506235751 44 299 1.7 2.6 0.01 0.01 0.01 83 1012.5
20260506235747 45 297 2.6 4.3 0.01 0.01 0.01 80 1012.4
20260506235350 45 299 0.9 2.6 0.01 0.01 0.01 82 1012.4
20260506234247 45 293 3.5 7.0 0.00 0.00 0.01 78 1012.3
20260506234243 46 287 2.6 7.0 0.00 0.00 0.00 75 1012.3
20260506233242 46 283 3.5 7.0 0.00 0.00 0.00 74 1012.2
20260506232742 46 301 3.5 7.0 0.00 0.00 0.00 73 1012.2
20260506232242 47 289 1.7 5.2 0.00 0.00 0.00 73 1012.1
20260506231747 47 250 1.7 5.2 0.00 0.00 0.00 70 1012.0
20260506231742 47 266 1.7 5.2 0.00 0.00 0.00 70 1012.0
20260506230736 47 264 0.9 5.2 0.00 0.00 0.00 71 1012.0
20260506230236 47 253 0.9 3.5 0.00 0.00 0.00 74 1012.0
20260506225736 46 212 1.7 5.2 0.00 0.00 0.00 72 1012.0
20260506225236 46 247 2.6 5.2 0.00 0.00 0.00 70 1011.9
20260506224738 47 249 3.5 7.0 0.00 0.00 0.00 72 1011.9
20260506224734 47 231 3.5 7.0 0.00 0.00 0.00 71 1011.9
20260506223734 47 280 3.5 6.1 0.00 0.00 0.00 69 1011.9
20260506223234 47 241 2.6 5.2 0.00 0.00 0.00 68 1011.7
20260506222734 48 285 3.5 7.8 0.00 0.00 0.00 68 1011.7
20260506222236 48 293 3.5 8.7 0.00 0.00 0.00 67 1011.7
20260506221735 48 273 3.5 8.7 0.00 0.00 0.00 66 1011.6
20260506221234 48 251 2.6 7.0 0.00 0.00 0.00 65 1011.6
20260506220734 49 209 2.6 7.0 0.00 0.00 0.00 65 1011.5
20260506220234 48 227 3.5 7.0 0.00 0.00 0.00 67 1011.6
20260506215734 49 268 4.3 7.0 0.00 0.00 0.00 66 1011.5
20260506215234 48 303 4.3 7.0 0.00 0.00 0.00 67 1011.5
20260506214733 48 279 4.3 7.0 0.00 0.00 0.00 68 1011.5
20260506214235 47 244 4.3 7.8 0.00 0.00 0.00 67 1011.4
20260506213737 47 282 4.3 8.7 0.00 0.00 0.00 69 1011.3
20260506213733 47 261 4.3 7.8 0.00 0.00 0.00 68 1011.4
20260506212732 48 266 3.5 8.7 0.00 0.00 0.00 67 1011.2
20260506212231 48 299 3.5 6.1 0.00 0.00 0.00 66 1011.2
20260506211731 48 285 2.6 6.1 0.00 0.00 0.00 65 1011.1
20260506211232 48 287 2.6 6.1 0.00 0.00 0.00 66 1011.1
20260506210732 48 289 3.5 6.1 0.00 0.00 0.00 66 1011.1
20260506210232 48 264 3.5 6.1 0.00 0.00 0.00 66 1011.0
20260506205732 48 282 2.6 5.2 0.00 0.00 0.00 65 1011.0
20260506205232 48 233 2.6 8.7 0.00 0.00 0.00 64 1011.1
20260506204731 49 265 1.7 8.7 0.00 0.00 0.00 64 1011.0
20260506204236 49 228 3.5 8.7 0.00 0.00 0.00 64 1010.9
20260506204231 49 201 2.6 6.1 0.00 0.00 0.00 63 1010.9
20260506203837 49 195 3.5 8.7 0.00 0.00 0.00 64 1010.9
20260506202732 49 158 2.6 6.1 0.00 0.00 0.00 60 1010.9
20260506202232 50 236 1.7 6.1 0.00 0.00 0.00 61 1010.8
20260506201736 49 197 1.7 6.1 0.00 0.00 0.00 63 1010.8
20260506201732 50 170 1.7 3.5 0.00 0.00 0.00 62 1010.8
20260506200732 49 202 2.6 6.1 0.00 0.00 0.00 65 1010.7
20260506200232 48 185 2.6 7.8 0.00 0.00 0.00 64 1010.7
20260506195732 48 291 2.6 7.8 0.00 0.00 0.00 64 1010.7
20260506195232 48 215 1.7 4.3 0.00 0.00 0.00 65 1010.7
20260506194732 48 319 1.7 5.2 0.00 0.00 0.00 66 1010.6
20260506194232 47 194 1.7 5.2 0.00 0.00 0.00 67 1010.7
20260506193731 47 243 2.6 5.2 0.00 0.00 0.00 67 1010.7
20260506193231 47 264 1.7 4.3 0.00 0.00 0.00 66 1010.6
20260506192731 47 198 0.9 4.3 0.00 0.00 0.00 69 1010.6
20260506192236 47 95 0.9 4.3 0.00 0.00 0.00 68 1010.6
20260506192232 47 85 0.9 4.3 0.00 0.00 0.00 69 1010.6
20260506191232 47 156 1.7 5.2 0.00 0.00 0.00 68 1010.6
20260506190732 47 133 1.7 5.2 0.00 0.00 0.00 67 1010.6
20260506190231 47 20 2.6 5.2 0.00 0.00 0.00 67 1010.6
20260506185732 47 145 2.6 6.1 0.00 0.00 0.00 66 1010.6
20260506185231 47 110 2.6 6.1 0.00 0.00 0.00 68 1010.6
20260506184729 47 196 2.6 7.0 0.00 0.00 0.00 67 1010.6
20260506184228 46 128 2.6 7.0 0.00 0.00 0.00 69 1010.6
20260506183732 46 92 2.6 5.2 0.00 0.00 0.00 70 1010.5
20260506183728 46 121 2.6 6.1 0.00 0.00 0.00 70 1010.5
20260506182727 46 106 2.6 6.1 0.00 0.00 0.00 70 1010.6
20260506182232 46 202 1.7 4.3 0.00 0.00 0.00 71 1010.5
20260506182228 46 159 2.6 6.1 0.00 0.00 0.00 70 1010.6
20260506181228 46 107 1.7 4.3 0.00 0.00 0.00 72 1010.4
20260506180728 45 198 1.7 4.3 0.00 0.00 0.00 73 1010.4
20260506180231 45 99 1.7 4.3 0.00 0.00 0.00 73 1010.4
20260506180227 45 145 1.7 4.3 0.00 0.00 0.00 73 1010.3
20260506175227 44 110 0.9 4.3 0.00 0.00 0.00 74 1010.4
20260506174725 44 179 0.9 2.6 0.00 0.00 0.00 76 1010.4
20260506174226 44 119 0.9 2.6 0.00 0.00 0.00 78 1010.4
20260506173725 44 101 0.9 2.6 0.00 0.00 0.00 78 1010.4
20260506173225 43 101 0.9 2.6 0.00 0.00 0.00 80 1010.4
20260506172723 43 101 0.9 2.6 0.00 0.00 0.00 81 1010.4
20260506172225 42 101 1.7 2.6 0.00 0.00 0.00 82 1010.4
20260506172221 43 101 0.9 2.6 0.00 0.00 0.00 82 1010.4
20260506171221 42 101 1.7 2.6 0.00 0.00 0.00 83 1010.4
20260506170722 42 328 0.9 2.6 0.00 0.00 0.00 84 1010.3
20260506170222 42 328 0.0 2.6 0.00 0.00 0.00 86 1010.3
20260506165718 41 328 0.0 1.7 0.00 0.00 0.00 88 1010.3
20260506165218 41 328 0.9 2.6 0.00 0.00 0.00 88 1010.2
20260506164717 41 328 0.0 2.6 0.00 0.00 0.00 89 1010.3
20260506164218 40 328 0.9 2.6 0.00 0.00 0.00 90 1010.2
20260506164214 40 328 0.0 1.7 0.00 0.00 0.00 90 1010.3
20260506163213 40 328 0.9 2.6 0.00 0.00 0.00 90 1010.2
20260506162711 40 328 0.0 2.6 0.00 0.00 0.00 91 1010.2
20260506162211 40 305 0.0 0.9 0.00 0.00 0.00 91 1010.2
20260506161705 39 306 0.0 0.9 0.00 0.00 0.00 91 1010.2
20260506161204 39 306 0.0 0.9 0.00 0.00 0.00 91 1010.3
20260506160704 39 306 0.0 1.7 0.00 0.00 0.00 92 1010.2
20260506160201 39 306 0.0 1.7 0.00 0.00 0.00 92 1010.2
20260506155702 38 306 0.0 2.6 0.00 0.00 0.00 92 1010.2
20260506155203 38 306 0.9 2.6 0.00 0.00 0.00 92 1010.1
20260506155158 38 306 0.0 1.7 0.00 0.00 0.00 93 1010.1
20260506154158 38 306 0.0 1.7 0.00 0.00 0.00 93 1010.1
20260506153655 38 306 0.0 1.7 0.00 0.00 0.00 93 1010.1
20260506153159 38 306 0.9 1.7 0.00 0.00 0.00 93 1010.1
20260506153155 38 306 0.9 1.7 0.00 0.00 0.00 93 1010.1
20260506152151 38 306 0.0 1.7 0.00 0.00 0.00 93 1010.1
20260506151651 38 306 0.0 1.7 0.00 0.00 0.00 93 1010.1
20260506151149 38 306 0.0 0.9 0.00 0.00 0.00 93 1010.1
20260506150649 37 306 0.0 0.9 0.00 0.00 0.00 93 1010.1
20260506150143 37 256 0.0 0.9 0.00 0.00 0.00 93 1010.0
20260506145641 37 256 0.0 0.9 0.00 0.00 0.00 93 1010.0
20260506145141 37 256 0.0 0.9 0.00 0.00 0.00 93 1010.0
20260506144639 37 256 0.0 0.0 0.00 0.00 0.00 93 1010.0
20260506144140 37 256 0.0 0.9 0.00 0.00 0.00 93 1010.1
20260506143635 37 256 0.0 0.9 0.00 0.00 0.00 93 1010.0
20260506143135 37 256 0.0 0.0 0.00 0.00 0.00 92 1010.0
20260506142635 37 256 0.0 0.0 0.00 0.00 0.00 92 1010.0
20260506142133 38 256 0.0 0.0 0.00 0.00 0.00 92 1010.0
20260506141632 38 256 0.0 0.0 0.00 0.00 0.00 92 1010.0
20260506141131 38 256 0.0 0.0 0.00 0.00 0.00 92 1010.0
20260506140629 38 256 0.0 0.0 0.00 0.00 0.00 91 1010.0
20260506140129 38 256 0.0 0.0 0.00 0.00 0.00 91 1010.0
20260506135623 38 256 0.0 0.0 0.00 0.00 0.00 91 1010.0
20260506135123 38 256 0.0 0.0 0.00 0.00 0.00 91 1010.0
20260506134617 38 256 0.0 0.0 0.00 0.00 0.00 90 1010.1
20260506134115 38 256 0.0 0.0 0.00 0.00 0.00 90 1010.0
20260506133615 38 256 0.0 0.0 0.00 0.00 0.00 90 1010.0
20260506133113 38 256 0.0 0.9 0.00 0.00 0.00 89 1010.0
20260506132611 39 256 0.0 0.9 0.00 0.00 0.00 88 1009.9
20260506132114 39 256 0.0 0.0 0.00 0.00 0.00 88 1009.9
20260506132110 39 256 0.0 0.0 0.00 0.00 0.00 87 1009.9
20260506131109 40 256 0.0 0.0 0.00 0.00 0.00 86 1009.9
20260506130603 40 256 0.0 0.0 0.00 0.00 0.00 85 1009.9
20260506130100 40 256 0.0 0.0 0.00 0.00 0.00 84 1009.9
20260506125600 40 256 0.0 0.0 0.00 0.00 0.00 84 1009.9
20260506125059 40 256 0.0 0.0 0.00 0.00 0.00 83 1009.9
20260506124601 41 256 0.0 0.0 0.00 0.00 0.00 82 1009.8
20260506124557 40 256 0.0 0.0 0.00 0.00 0.00 82 1009.9
20260506123555 41 256 0.0 1.7 0.00 0.00 0.00 81 1009.8
20260506123056 41 256 0.0 3.5 0.00 0.00 0.00 80 1009.8
20260506122553 41 256 0.9 3.5 0.00 0.00 0.00 79 1009.8
20260506122051 41 258 0.9 3.5 0.00 0.00 0.00 78 1009.8
20260506121551 42 261 1.7 3.5 0.00 0.00 0.00 77 1009.7
20260506121050 42 261 1.7 3.5 0.00 0.00 0.00 76 1009.7
20260506120551 42 286 1.7 3.5 0.00 0.00 0.00 74 1009.6
20260506120052 42 287 0.9 3.5 0.00 0.00 0.00 73 1009.6
20260506120048 42 282 0.9 2.6 0.00 0.00 0.00 72 1009.6
20260506115047 42 291 0.0 1.7 0.00 0.00 0.00 72 1009.6
20260506114545 42 291 0.9 2.6 0.00 0.00 0.00 71 1009.5
20260506114043 42 291 0.9 3.5 0.00 0.00 0.00 70 1009.5
20260506113542 42 291 1.7 3.5 0.00 0.00 0.00 70 1009.4
20260506113041 42 291 1.7 3.5 0.00 0.00 0.00 70 1009.4
20260506112546 42 30 0.0 2.6 0.00 0.00 0.00 70 1009.4
20260506112542 41 290 0.9 2.6 0.00 0.00 0.00 70 1009.4
20260506111540 42 30 0.0 1.7 0.00 0.00 0.00 70 1009.2
20260506111041 42 30 0.0 0.9 0.00 0.00 0.00 68 1009.1
20260506110538 42 30 0.9 2.6 0.00 0.00 0.00 68 1009.1
20260506110039 42 31 0.9 2.6 0.00 0.00 0.00 68 1009.0
20260506105539 42 129 0.0 1.7 0.00 0.00 0.00 68 1009.0
20260506105039 42 129 0.0 0.0 0.00 0.00 0.00 67 1008.9
20260506104543 42 129 0.9 3.5 0.00 0.00 0.00 66 1008.7
20260506104539 42 129 0.0 1.7 0.00 0.00 0.00 67 1008.8
20260506103535 42 129 1.7 3.5 0.00 0.00 0.00 66 1008.7
20260506103039 42 128 2.6 4.3 0.00 0.00 0.00 66 1008.5
20260506103035 42 137 1.7 4.3 0.00 0.00 0.00 67 1008.5
20260506102039 43 120 1.7 4.3 0.00 0.00 0.00 66 1008.4
20260506102035 43 116 1.7 4.3 0.00 0.00 0.00 66 1008.4